Temperature
16 17 17 17 17 17 17 15 15 15 15 15 15 15 16 16 16 16 16 16 15 15 15 15 15 15 14 14 14 14 14 14 14 13 13 13 13 13 13 13 13 13 13 13
16 17 17 17 17 17 17 16 16 16 15 15 16 16 15 15 15 15 15 15 15 15 15 15 14 14 14 14 14 14 13 13 13 13 13 13 13 13 13 12 12 12 12 12
14 15 16 16 16 17 16 16 16 15 15 14 14 14 14 15 15 15 15 15 15 15 14 14 14 14 14 14 13 13 13 13 13 12 12 12 12 12 12 12 12 12 12 12
13 15 15 15 16 17 16 16 15 15 15 14 15 15 15 15 15 15 15 15 15 15 14 14 14 14 14 13 13 13 13 12 12 12 12 12 12 12 11 11 11 11 11 11
12 13 14 15 16 16 16 15 15 15 14 15 15 14 14 15 15 15 15 15 15 14 14 14 14 14 13 13 13 13 12 12 12 11 11 11 11 11 11 11 11 10 10 10
12 13 13 14 16 16 15 14 15 14 14 14 14 12 12 14 14 14 14 14 14 14 14 14 13 13 13 13 12 12 12 12 11 11 11 11 11 10 10 10 10 10 10 10
12 12 13 14 15 16 14 14 15 15 15 14 13 13 14 14 14 14 14 14 14 14 14 13 13 13 13 12 12 12 11 11 11 11 10 10 10 10 10 10 10 9 9 9
11 12 13 14 15 14 13 15 15 15 15 15 14 14 14 14 13 13 13 13 13 13 13 13 12 12 12 12 12 11 11 11 10 10 10 10 9 9 9 9 9 9 9 9
11 12 13 15 15 15 15 15 15 15 15 14 14 14 13 13 13 13 13 13 13 13 12 12 12 12 12 11 11 11 10 10 10 10 9 9 9 9 9 8 8 8 8 8
11 12 13 14 14 15 15 14 14 14 14 14 14 13 13 13 13 13 13 12 12 12 12 12 11 11 11 11 10 10 10 10 9 9 9 9 9 8 8 8 8 7 7 8
11 11 12 13 14 14 14 14 14 13 13 13 13 13 13 12 12 12 12 12 12 11 11 11 11 10 10 10 10 10 9 9 9 9 9 8 8 8 8 7 7 7 7 7
11 12 11 12 13 13 13 13 13 13 12 13 13 13 12 12 12 12 11 11 11 11 11 10 10 10 10 9 9 9 9 9 8 8 8 8 8 7 7 7 7 7 6 7
13 13 13 13 13 13 13 12 12 12 12 12 12 12 12 12 11 11 11 11 11 10 10 10 9 9 9 9 9 9 9 8 8 8 8 7 7 7 7 7 6 6 6 6
13 13 12 12 12 12 12 12 12 12 12 12 12 12 11 11 11 11 10 10 10 10 9 9 9 9 8 8 8 8 8 8 8 8 7 7 7 7 6 6 6 6 6 6
12 12 12 12 11 11 11 11 11 11 11 11 11 11 11 11 10 10 10 10 9 9 9 8 8 8 8 8 8 8 7 7 7 7 7 7 6 6 6 6 6 6 5 5
12 11 11 11 11 11 11 10 10 10 10 10 10 10 10 10 10 10 9 9 9 8 8 8 7 7 7 7 7 7 7 7 7 7 6 6 6 6 6 5 5 5 5 5
11 10 10 10 10 10 10 10 10 10 10 10 10 9 9 9 9 9 9 8 8 8 7 7 7 7 7 7 7 7 7 6 6 6 6 6 5 5 5 5 5 5 4 4
10 10 10 10 10 10 9 9 9 9 9 9 9 9 9 8 8 8 8 7 7 7 7 6 6 6 6 6 6 6 6 6 6 5 5 5 5 5 5 4 4 4 4 4
10 10 9 9 9 9 9 9 9 9 9 8 8 8 8 8 7 7 7 7 6 6 6 6 5 5 6 6 5 5 5 5 5 5 5 4 4 4 4 4 4 4 4 3
9 9 9 9 9 9 8 8 8 8 8 8 8 7 7 7 7 6 6 6 6 6 5 5 5 5 5 5 5 5 4 4 4 4 4 4 4 4 4 3 3 3 3 3
9 9 8 8 8 8 8 8 8 8 7 7 7 7 6 6 6 6 5 5 5 5 5 4 4 4 4 4 4 4 4 4 4 3 3 3 3 3 3 3 3 3 2 2
8 8 8 8 8 8 7 7 7 7 7 7 7 6 6 6 5 5 5 5 5 4 4 4 4 3 3 3 3 3 3 3 3 3 3 2 2 2 2 2 2 2 2 2
8 8 8 8 7 7 7 7 7 7 7 6 6 6 6 5 5 5 5 4 4 4 3 3 3 3 3 3 3 3 2 2 2 2 2 2 2 2 2 2 2 2 1 1
8 8 8 7 7 7 7 6 6 6 6 6 6 5 5 5 5 5 4 4 4 3 3 3 3 2 2 2 2 2 2 2 2 2 2 1 1 1 1 1 1 1 1 1
7 7 7 7 7 6 6 6 6 6 6 5 5 5 5 4 4 4 4 3 3 3 3 2 2 2 2 2 2 2 1 1 1 1 1 1 1 1 1 1 1 1 0 0
7 7 6 6 6 6 6 5 5 5 5 5 4 4 4 4 4 3 3 3 3 2 2 2 2 2 2 2 1 1 1 1 1 1 1 0 0 0 0 0 0 0 -0 -0
6 6 6 6 5 5 5 5 5 5 4 4 4 4 4 3 3 3 3 3 2 2 2 2 2 2 1 1 1 1 1 1 0 0 0 0 0 0 -0 -0 -0 -0 -1 -1
Wind_Speed
6 7 3 3 4 3 4 6 6 6 6 6 6 6 5 5 5 4 5 5 5 5 4 3 3 3 2 1 1 2 2 2 1 0 1 1 1 1 1 1 2 2 2 1
3 4 2 2 4 4 4 3 4 4 4 4 3 2 2 3 5 5 5 5 5 5 4 4 5 4 3 2 2 2 2 2 1 1 2 1 1 1 1 1 1 1 2 2
3 5 3 3 4 3 2 2 4 5 5 2 1 2 4 4 5 5 6 6 6 6 5 5 6 6 5 4 3 3 3 2 2 2 1 1 1 1 1 1 1 1 0 1
1 2 3 6 3 2 3 0 2 3 3 4 3 3 3 4 6 5 5 5 6 6 5 5 5 4 4 3 3 4 3 2 2 3 2 1 1 1 0 0 1 1 0 1
2 2 5 5 3 0 2 2 1 3 2 1 2 4 3 1 2 3 4 5 4 5 4 3 3 4 4 3 3 3 3 3 3 3 2 1 1 1 1 0 0 1 0 0
3 3 5 6 5 2 3 2 2 2 2 1 3 1 4 3 1 1 1 2 2 3 2 2 3 4 4 4 3 3 4 4 3 2 3 3 3 2 1 1 1 1 0 0
4 4 6 6 4 2 3 6 3 2 3 4 4 5 5 3 2 2 1 1 1 2 3 3 3 4 4 3 4 4 3 3 2 2 2 3 2 2 1 1 1 0 0 1
3 4 6 4 1 3 5 3 2 2 2 3 3 2 2 2 2 2 1 1 1 2 2 2 3 4 4 4 4 2 2 2 2 2 2 1 2 1 1 2 1 1 1 1
6 6 4 2 4 3 3 2 2 2 2 3 2 2 2 2 2 2 2 2 1 2 2 1 2 4 4 4 3 3 3 2 2 1 1 1 2 1 1 1 1 1 1 1
2 4 3 2 1 1 1 2 2 1 2 3 2 3 3 3 2 2 2 2 1 2 2 1 2 3 4 3 3 4 3 2 2 1 1 0 1 2 2 2 2 2 2 2
3 4 3 3 2 1 1 0 0 0 1 3 3 2 3 3 3 3 2 2 1 2 3 3 3 2 2 3 4 4 3 2 2 2 2 1 1 1 2 3 3 3 3 3
6 6 4 5 4 2 1 1 1 0 1 1 2 3 2 2 2 2 2 1 1 2 2 2 1 1 2 2 4 4 3 2 2 2 2 1 1 1 2 2 2 2 2 3
6 5 5 4 3 1 1 1 1 2 2 2 2 2 3 2 2 1 1 1 2 2 2 2 1 2 2 2 3 4 4 3 2 2 2 2 2 2 2 2 2 2 3 3
4 2 2 2 3 2 1 1 1 1 1 2 2 2 2 1 1 1 2 3 2 2 1 1 1 2 2 2 3 3 3 3 3 3 3 3 3 3 3 2 2 3 3 4
4 3 4 3 2 1 1 1 1 1 2 2 1 1 2 2 2 3 2 2 2 2 1 1 1 2 2 1 3 3 3 3 3 3 3 3 3 3 3 3 3 2 2 3
2 1 1 1 1 1 0 0 0 2 2 2 2 1 2 2 2 1 1 2 3 2 2 1 2 2 2 1 1 2 3 4 3 3 2 2 2 2 3 3 3 2 3 3
3 3 2 2 2 2 2 3 3 3 3 2 2 2 1 0 0 1 1 1 2 2 2 2 2 2 1 1 2 2 2 2 3 2 2 3 3 3 3 3 3 3 3 3
5 5 5 5 4 3 3 3 2 3 3 3 2 0 1 1 2 2 2 1 0 0 2 2 2 1 1 1 1 2 2 2 2 2 2 3 3 3 3 3 3 3 3 2
2 2 2 2 3 3 3 3 3 2 2 1 1 1 1 2 2 2 1 1 1 2 3 3 2 1 1 2 1 1 1 1 2 2 2 3 3 3 3 3 3 3 3 3
2 2 2 2 2 2 3 3 2 2 1 1 1 0 1 2 2 2 2 2 3 3 3 2 1 1 2 2 1 1 1 2 2 2 2 2 3 3 3 3 4 4 3 3
3 2 3 3 2 3 3 2 2 2 2 2 2 2 3 2 2 1 1 2 4 2 2 2 1 2 2 2 1 1 1 2 2 2 2 2 3 3 3 3 3 4 4 4
3 3 3 3 2 3 3 2 2 2 2 2 3 3 2 3 3 3 3 3 3 3 2 2 2 3 3 2 1 1 2 2 2 2 2 3 3 3 3 3 3 4 4 4
3 3 3 3 3 3 2 2 2 2 3 3 3 3 3 3 3 2 3 3 2 3 2 3 4 4 4 1 1 2 2 3 3 3 3 3 4 4 4 4 4 4 4 4
2 2 2 2 1 1 2 3 3 2 3 3 3 3 3 2 2 3 2 3 2 2 2 4 5 5 3 1 2 2 3 3 3 3 3 3 3 3 3 3 4 4 4 5
1 1 1 1 1 2 3 2 1 1 1 2 2 2 2 2 3 3 2 3 3 3 2 4 6 5 3 2 3 3 3 4 4 3 3 3 3 4 4 4 4 5 4 4
1 2 2 2 2 2 2 1 1 2 1 2 2 2 2 2 2 2 2 3 3 3 3 3 3 3 3 3 3 4 4 4 4 4 3 4 4 4 4 5 6 5 5 5
1 1 1 1 2 1 1 1 2 2 3 2 3 3 2 2 2 2 3 2 3 3 3 3 3 3 3 4 4 4 4 4 4 4 4 4 4 4 4 5 5 4 5 5
Wind_Direction
237 248 243 251 258 243 201 193 195 223 219 232 222 213 203 187 178 168 170 172 180 189 193 182 171 169 167 174 149 136 116 115 149 139 96 84 78 71 83 123 174 167 154 168
290 272 292 297 272 238 220 203 200 207 246 256 229 162 152 167 166 174 185 185 189 189 186 183 187 189 185 187 189 155 141 164 147 96 86 77 76 63 66 71 77 123 156 173
277 301 353 293 264 214 198 215 181 207 230 222 109 160 194 193 180 189 193 190 189 191 195 199 199 192 193 199 188 164 163 160 144 137 114 86 68 58 35 31 77 65 69 125
252 3 253 251 279 157 147 326 172 171 190 179 191 211 209 187 180 186 193 194 197 199 203 210 204 194 191 181 175 171 175 184 180 168 168 158 90 65 294 219 150 154 216 162
154 209 269 293 310 287 159 305 315 146 156 123 75 50 358 301 162 185 192 189 193 194 194 199 198 186 162 158 160 166 183 197 205 189 181 172 182 219 248 228 239 236 205 170
152 183 231 248 271 273 115 267 281 147 167 176 101 86 261 270 273 198 151 167 183 174 155 173 202 166 151 166 164 189 204 204 202 194 190 196 207 213 214 190 216 235 319 289
180 213 255 261 281 70 156 240 258 195 178 170 191 220 229 225 217 197 196 216 194 155 166 195 188 154 155 168 198 213 206 191 185 192 205 202 199 208 198 181 163 175 289 303
166 201 249 266 106 168 222 240 207 193 183 181 204 217 186 192 203 200 200 204 184 163 194 203 173 155 166 200 215 186 160 166 189 199 211 201 183 204 187 163 165 206 230 292
191 214 242 220 197 214 179 185 216 196 200 171 177 198 204 211 213 204 194 187 184 175 186 227 201 172 183 215 190 154 143 159 180 184 206 176 177 194 170 155 171 224 220 252
234 258 265 283 259 196 185 202 226 219 192 165 182 202 205 211 218 219 219 201 182 157 163 215 230 200 199 199 167 148 155 172 172 168 187 171 175 181 175 190 205 235 243 250
254 273 306 297 260 233 276 122 103 40 223 192 177 206 210 217 219 211 221 219 188 184 189 209 222 221 215 187 153 152 162 169 175 181 183 194 207 206 199 211 208 218 234 232
233 234 215 244 257 254 216 253 236 249 329 251 184 196 208 210 217 210 205 208 202 196 198 208 203 225 226 178 158 160 170 181 187 188 186 186 203 274 277 239 235 233 250 248
226 233 220 232 245 258 209 236 249 219 218 236 219 186 171 190 208 215 229 229 219 205 195 193 207 225 222 182 168 172 183 192 192 191 192 198 201 205 260 298 292 283 283 289
221 198 239 242 242 258 258 258 286 319 290 241 200 168 160 171 216 222 232 234 213 176 164 168 205 257 249 198 176 183 191 200 193 194 200 207 213 214 212 218 257 281 280 279
236 211 219 229 246 278 319 27 27 343 332 319 287 173 181 191 219 238 244 212 153 140 154 171 269 279 286 232 200 202 205 207 203 198 204 210 215 215 214 217 228 251 277 292
210 204 176 178 214 247 310 18 294 285 296 291 289 256 225 210 219 240 252 174 159 181 204 215 256 272 273 251 222 216 219 220 210 201 203 210 211 212 219 219 223 233 242 254
184 220 216 213 222 236 238 238 232 248 263 265 257 247 220 159 5 300 298 241 190 197 211 225 252 267 266 232 219 222 220 225 226 217 208 211 213 219 223 221 223 231 242 249
196 205 204 202 209 220 243 252 253 261 255 254 251 217 192 199 225 242 250 246 155 264 278 269 269 278 283 274 222 213 205 217 221 221 225 225 226 224 220 220 225 230 245 255
185 188 207 209 208 204 225 245 256 257 255 228 157 231 252 247 245 248 232 181 200 252 278 278 283 297 288 280 293 236 221 229 245 245 235 242 242 233 225 226 231 234 237 241
205 206 208 223 229 223 240 258 258 254 249 194 157 293 297 288 274 260 240 237 245 247 250 259 261 265 268 275 297 248 219 222 234 249 248 239 238 240 236 236 237 238 239 238
208 204 201 208 233 241 240 241 228 247 246 207 199 219 235 253 255 246 232 269 283 270 254 264 267 267 265 272 285 224 221 241 248 246 246 247 248 245 244 246 247 247 247 247
213 210 217 222 228 249 252 234 228 237 244 238 234 225 225 242 248 248 245 243 248 247 249 249 247 266 286 291 267 233 235 244 253 252 247 247 249 251 250 250 253 256 256 252
226 226 228 223 221 238 259 255 242 231 232 235 231 226 225 234 232 233 266 266 247 256 257 247 260 273 287 295 265 250 246 244 247 252 252 248 247 248 251 254 256 259 261 260
255 249 245 241 204 209 259 267 261 253 243 244 239 230 222 234 259 255 244 250 257 268 263 264 266 271 280 277 261 254 252 250 248 250 253 255 254 254 255 258 261 262 262 260
244 250 261 212 220 240 243 253 271 281 287 290 284 270 250 231 235 245 240 241 246 252 260 267 271 274 270 252 251 250 248 248 251 251 245 247 251 254 259 261 261 264 263 260
256 251 250 242 238 244 246 242 247 255 263 286 294 284 276 269 255 247 248 248 244 255 260 261 260 262 256 251 255 255 252 259 264 258 251 257 256 255 257 258 260 263 262 260
311 308 311 314 308 279 254 240 243 253 247 248 270 272 264 262 258 252 251 253 253 254 258 259 254 251 250 251 255 256 254 251 249 246 248 254 258 258 261 262 265 264 262 258
Height
1515 1511 1510 1510 1509 1508 1511 1515 1521 1517 1514 1510 1507 1506 1506 1506 1507 1508 1509 1510 1510 1511 1511 1512 1512 1512 1513 1512 1512 1512 1512 1512 1512 1512 1512 1512 1512 1512 1511 1511 1511 1512 1512 1512
1514 1508 1508 1510 1507 1506 1506 1508 1510 1510 1511 1505 1504 1504 1504 1505 1506 1507 1508 1508 1509 1509 1510 1510 1510 1510 1510 1510 1510 1510 1510 1510 1510 1510 1509 1509 1509 1509 1509 1509 1509 1509 1509 1509
1522 1513 1510 1514 1507 1505 1505 1504 1506 1510 1509 1504 1504 1504 1503 1503 1504 1504 1505 1506 1506 1507 1507 1507 1508 1508 1508 1507 1507 1507 1507 1507 1507 1507 1507 1507 1507 1507 1506 1506 1506 1506 1506 1506
1524 1520 1523 1512 1501 1500 1503 1503 1502 1502 1502 1502 1502 1501 1501 1501 1501 1501 1502 1503 1503 1504 1505 1505 1505 1505 1505 1505 1504 1504 1504 1504 1504 1504 1504 1504 1504 1504 1504 1504 1504 1503 1503 1503
1525 1525 1520 1508 1502 1501 1503 1505 1502 1501 1501 1501 1500 1500 1500 1500 1500 1500 1500 1500 1501 1501 1501 1502 1502 1502 1502 1501 1501 1501 1501 1501 1501 1501 1501 1501 1501 1501 1501 1501 1501 1501 1500 1500
1523 1523 1524 1510 1500 1498 1502 1508 1501 1499 1499 1500 1500 1504 1502 1499 1499 1498 1498 1498 1498 1499 1499 1499 1499 1499 1499 1498 1498 1498 1498 1498 1498 1498 1498 1498 1498 1498 1498 1498 1498 1498 1497 1497
1521 1522 1515 1503 1498 1498 1511 1508 1499 1498 1497 1497 1498 1499 1498 1497 1497 1496 1496 1496 1496 1496 1496 1496 1496 1496 1495 1495 1495 1495 1495 1495 1495 1495 1495 1495 1495 1495 1495 1495 1495 1494 1494 1494
1520 1522 1516 1498 1498 1502 1502 1497 1496 1496 1496 1495 1495 1495 1495 1495 1494 1494 1494 1493 1493 1493 1493 1493 1493 1493 1492 1492 1492 1492 1492 1492 1492 1492 1492 1491 1491 1491 1491 1491 1491 1491 1490 1490
1509 1508 1499 1496 1496 1496 1496 1496 1495 1494 1494 1494 1493 1492 1492 1492 1491 1491 1491 1491 1491 1490 1490 1490 1490 1489 1488 1488 1489 1489 1488 1488 1488 1488 1488 1488 1488 1488 1488 1488 1487 1487 1486 1486
1502 1498 1496 1495 1494 1494 1494 1494 1493 1493 1492 1491 1491 1490 1490 1489 1489 1488 1488 1488 1488 1487 1487 1486 1486 1486 1485 1485 1485 1485 1485 1485 1485 1485 1485 1485 1485 1485 1484 1484 1483 1483 1483 1482
1499 1496 1494 1493 1492 1492 1492 1492 1491 1490 1490 1489 1488 1488 1487 1487 1486 1486 1486 1485 1485 1484 1483 1483 1483 1483 1483 1482 1482 1482 1482 1482 1482 1482 1482 1481 1481 1481 1481 1480 1480 1480 1479 1479
1496 1492 1493 1491 1491 1491 1490 1489 1489 1488 1488 1487 1486 1485 1485 1484 1484 1483 1483 1482 1482 1481 1481 1480 1480 1480 1480 1479 1479 1479 1479 1479 1479 1479 1478 1478 1478 1478 1477 1477 1477 1476 1476 1476
1489 1489 1489 1488 1489 1488 1488 1487 1486 1486 1485 1485 1483 1483 1482 1482 1481 1481 1480 1480 1479 1478 1477 1477 1476 1476 1476 1476 1476 1476 1475 1475 1475 1475 1475 1474 1474 1474 1473 1473 1473 1472 1472 1471
1486 1486 1486 1486 1486 1486 1485 1485 1484 1483 1483 1482 1481 1480 1480 1479 1479 1478 1477 1477 1476 1475 1474 1474 1473 1473 1473 1473 1472 1472 1472 1472 1471 1471 1471 1471 1470 1470 1470 1469 1468 1468 1468 1468
1483 1483 1483 1483 1483 1483 1483 1482 1481 1481 1480 1479 1478 1477 1477 1476 1476 1475 1474 1474 1473 1472 1471 1471 1470 1470 1469 1469 1469 1468 1468 1468 1468 1467 1467 1467 1466 1466 1466 1465 1465 1464 1464 1464
1479 1480 1480 1480 1480 1480 1479 1479 1478 1478 1477 1476 1475 1474 1474 1473 1473 1472 1471 1470 1469 1468 1468 1467 1467 1466 1466 1466 1465 1465 1464 1464 1464 1463 1463 1463 1462 1462 1462 1461 1461 1460 1460 1460
1476 1476 1476 1476 1476 1476 1476 1476 1476 1475 1474 1473 1473 1472 1471 1470 1469 1468 1467 1467 1466 1465 1465 1464 1464 1463 1463 1462 1462 1461 1460 1460 1460 1459 1459 1459 1458 1458 1458 1457 1457 1457 1456 1456
1472 1473 1473 1473 1473 1473 1473 1473 1472 1472 1471 1470 1470 1469 1468 1467 1466 1465 1464 1463 1462 1462 1461 1461 1460 1460 1459 1459 1458 1457 1456 1456 1455 1455 1455 1454 1454 1454 1453 1453 1453 1452 1452 1452
1469 1469 1470 1470 1470 1470 1470 1470 1469 1469 1468 1467 1466 1465 1465 1464 1463 1462 1461 1460 1459 1458 1458 1458 1457 1456 1456 1455 1454 1453 1452 1452 1451 1451 1451 1450 1450 1449 1449 1449 1448 1448 1448 1447
1466 1467 1467 1467 1467 1467 1467 1466 1466 1465 1465 1464 1463 1462 1461 1460 1460 1459 1458 1457 1456 1455 1455 1454 1454 1453 1452 1451 1451 1450 1449 1448 1447 1447 1446 1446 1445 1445 1444 1444 1444 1443 1443 1443
1463 1464 1464 1464 1464 1464 1464 1463 1463 1462 1461 1461 1460 1459 1458 1458 1457 1456 1454 1453 1453 1452 1452 1451 1450 1449 1449 1448 1447 1446 1445 1444 1443 1443 1442 1441 1441 1440 1440 1439 1439 1438 1438 1438
1460 1460 1460 1460 1460 1460 1460 1460 1459 1459 1458 1457 1457 1456 1455 1454 1453 1452 1451 1450 1449 1449 1448 1447 1447 1446 1445 1444 1443 1442 1441 1440 1439 1439 1438 1437 1437 1436 1435 1435 1434 1434 1433 1433
1457 1457 1457 1457 1457 1456 1456 1456 1456 1455 1454 1454 1453 1452 1451 1450 1449 1448 1447 1447 1446 1445 1444 1444 1443 1442 1441 1440 1439 1438 1437 1436 1435 1435 1434 1433 1433 1432 1431 1431 1430 1430 1429 1428
1455 1454 1454 1454 1453 1453 1452 1452 1452 1451 1450 1450 1449 1448 1447 1446 1445 1444 1444 1443 1442 1441 1440 1439 1439 1438 1437 1436 1435 1434 1433 1432 1431 1431 1430 1429 1428 1428 1427 1426 1425 1425 1424 1423
1452 1452 1451 1450 1450 1449 1449 1448 1447 1447 1447 1446 1445 1444 1444 1443 1442 1440 1439 1438 1438 1437 1436 1435 1434 1434 1433 1432 1431 1430 1429 1428 1427 1426 1426 1425 1424 1423 1422 1421 1420 1419 1419 1418
1449 1449 1448 1448 1447 1446 1445 1445 1444 1443 1443 1442 1441 1440 1439 1439 1438 1436 1435 1434 1434 1433 1432 1431 1430 1429 1428 1427 1426 1425 1424 1424 1423 1422 1421 1420 1419 1418 1417 1416 1415 1414 1413 1412
1447 1446 1445 1445 1444 1443 1442 1442 1441 1440 1439 1438 1437 1436 1436 1435 1433 1432 1431 1431 1430 1429 1428 1427 1426 1425 1424 1423 1422 1421 1420 1419 1418 1417 1416 1415 1414 1413 1412 1411 1410 1409 1407 1406